VIV683 KDFW-MMMY

Flight info

Callsign VIV683
Flight time 1h 14m
Altitude 38000
Route NELYN6 SAT J21 LRD DCT WEGUS DCT NLD UJ40 NOTAL UJ45 URTUS DCT TASNA DCT MY604
Aircraft A20N/M-SDE2E3FGHIRWXY/LB1

Departure

Time 2026-05-05 21:07
Airport Dallas Fort Worth International Airport (KDFW)

Arrival

Time 2026-05-05 22:22
Airport Monterrey International Airport (MMMY)
Time Latitude Longitude Altitude Speed Heading
2026-05-05 20:43 32.89497 -97.04321 615 ft 0 kts
2026-05-05 20:53 32.89491 -97.04321 615 ft 2 kts
2026-05-05 20:54 32.89476 -97.04321 615 ft 2 kts
2026-05-05 20:54 32.89461 -97.04321 615 ft 2 kts
2026-05-05 20:54 32.89446 -97.04321 615 ft 2 kts
2026-05-05 20:54 32.89433 -97.04321 615 ft 1 kts
2026-05-05 20:55 32.89426 -97.04318 615 ft 1 kts 295°
2026-05-05 20:55 32.89426 -97.04305 615 ft 2 kts 259°
2026-05-05 20:55 32.89426 -97.04287 615 ft 2 kts 273°
2026-05-05 20:55 32.89426 -97.04269 615 ft 2 kts 269°
2026-05-05 20:56 32.89426 -97.04263 615 ft 0 kts 270°
2026-05-05 20:58 32.89426 -97.04264 615 ft 0 kts 270°
2026-05-05 20:58 32.89426 -97.04272 615 ft 1 kts 270°
2026-05-05 20:59 32.89426 -97.04308 615 ft 7 kts 270°
2026-05-05 20:59 32.89426 -97.04401 615 ft 15 kts 269°
2026-05-05 20:59 32.89426 -97.04545 615 ft 16 kts 270°
2026-05-05 20:59 32.89427 -97.04678 615 ft 16 kts 270°
2026-05-05 21:00 32.89449 -97.04767 615 ft 10 kts 346°
2026-05-05 21:00 32.89527 -97.04768 615 ft 12 kts
2026-05-05 21:00 32.89629 -97.04766 615 ft 17 kts
2026-05-05 21:00 32.89755 -97.04765 615 ft 18 kts
2026-05-05 21:01 32.89886 -97.04765 615 ft 19 kts
2026-05-05 21:01 32.90029 -97.04764 615 ft 20 kts 360°
2026-05-05 21:01 32.90171 -97.04766 615 ft 20 kts 358°
2026-05-05 21:01 32.90308 -97.04768 615 ft 19 kts
2026-05-05 21:02 32.90445 -97.04765 615 ft 19 kts
2026-05-05 21:02 32.90580 -97.04763 615 ft 19 kts
2026-05-05 21:02 32.90703 -97.04762 615 ft 16 kts
2026-05-05 21:02 32.90815 -97.04762 615 ft 16 kts
2026-05-05 21:03 32.90928 -97.04761 615 ft 16 kts 360°
2026-05-05 21:03 32.91025 -97.04786 615 ft 14 kts 337°
2026-05-05 21:03 32.91137 -97.04795 615 ft 18 kts
2026-05-05 21:03 32.91267 -97.04794 615 ft 18 kts
2026-05-05 21:04 32.91396 -97.04794 615 ft 18 kts
2026-05-05 21:04 32.91485 -97.04836 615 ft 11 kts 285°
2026-05-05 21:04 32.91487 -97.04928 615 ft 7 kts 269°
2026-05-05 21:04 32.91487 -97.04964 615 ft 0 kts 270°
2026-05-05 21:05 32.91487 -97.04986 615 ft 7 kts 271°
2026-05-05 21:06 32.91466 -97.05071 615 ft 13 kts 205°
2026-05-05 21:06 32.91432 -97.05077 615 ft 0 kts 180°
2026-05-05 21:06 32.91431 -97.05077 615 ft 0 kts 180°
2026-05-05 21:06 32.91228 -97.05079 615 ft 67 kts 180°
2026-05-05 21:07 32.90511 -97.05083 615 ft 134 kts 181°
2026-05-05 21:07 32.89479 -97.05087 997 ft 153 kts 184°
2026-05-05 21:07 32.88443 -97.05071 1663 ft 151 kts 182°
2026-05-05 21:07 32.87412 -97.05033 2294 ft 151 kts 182°
2026-05-05 21:08 32.86362 -97.05005 2895 ft 152 kts 182°
2026-05-05 21:08 32.85297 -97.04987 3436 ft 157 kts 183°
2026-05-05 21:08 32.84214 -97.04969 4041 ft 157 kts 184°
2026-05-05 21:08 32.83128 -97.04943 4598 ft 161 kts 183°
2026-05-05 21:09 32.81960 -97.04916 4984 ft 177 kts 183°
2026-05-05 21:09 32.80670 -97.04955 5314 ft 189 kts 187°
2026-05-05 21:09 32.79321 -97.05089 5641 ft 203 kts 188°
2026-05-05 21:09 32.77870 -97.05203 5995 ft 218 kts 186°
2026-05-05 21:10 32.76289 -97.05281 6394 ft 234 kts 185°
2026-05-05 21:10 32.74628 -97.05333 6800 ft 250 kts 184°
2026-05-05 21:10 32.72827 -97.05373 7212 ft 266 kts 184°
2026-05-05 21:10 32.70921 -97.05531 7619 ft 278 kts 190°
2026-05-05 21:11 32.69006 -97.05958 8209 ft 285 kts 196°
2026-05-05 21:11 32.67102 -97.06534 9029 ft 285 kts 197°
2026-05-05 21:11 32.65181 -97.07137 9785 ft 288 kts 197°
2026-05-05 21:11 32.63230 -97.07755 10453 ft 294 kts 197°
2026-05-05 21:12 32.61232 -97.08383 10933 ft 307 kts 197°
2026-05-05 21:12 32.59119 -97.09046 11441 ft 320 kts 197°
2026-05-05 21:12 32.56924 -97.09733 11949 ft 331 kts 197°
2026-05-05 21:12 32.54675 -97.10433 12452 ft 342 kts 197°
2026-05-05 21:13 32.52325 -97.11164 12961 ft 352 kts 197°
2026-05-05 21:13 32.49915 -97.11913 13469 ft 362 kts 198°
2026-05-05 21:13 32.47482 -97.12670 13969 ft 370 kts 198°
2026-05-05 21:13 32.44957 -97.13456 14475 ft 377 kts 198°
2026-05-05 21:14 32.42428 -97.14241 14976 ft 380 kts 198°
2026-05-05 21:14 32.39846 -97.15043 15485 ft 382 kts 198°
2026-05-05 21:14 32.37271 -97.15842 15989 ft 384 kts 199°
2026-05-05 21:14 32.34694 -97.16641 16491 ft 386 kts 199°
2026-05-05 21:15 32.32095 -97.17448 16997 ft 388 kts 199°
2026-05-05 21:15 32.29494 -97.18187 17494 ft 391 kts 196°
2026-05-05 21:15 32.26792 -97.18761 18001 ft 396 kts 193°
2026-05-05 21:15 32.24073 -97.19160 18501 ft 399 kts 192°
2026-05-05 21:16 32.21318 -97.19527 19003 ft 401 kts 192°
2026-05-05 21:16 32.18523 -97.19899 19512 ft 404 kts 192°
2026-05-05 21:16 32.15710 -97.20274 20098 ft 408 kts 192°
2026-05-05 21:16 32.12897 -97.20649 20691 ft 410 kts 192°
2026-05-05 21:17 32.10060 -97.21029 21245 ft 414 kts 193°
2026-05-05 21:17 32.07197 -97.21412 21782 ft 417 kts 193°
2026-05-05 21:17 32.04244 -97.21807 22321 ft 421 kts 193°
2026-05-05 21:17 32.01306 -97.22201 22839 ft 424 kts 193°
2026-05-05 21:18 31.98375 -97.22593 23344 ft 428 kts 193°
2026-05-05 21:18 31.95386 -97.22993 23830 ft 431 kts 194°
2026-05-05 21:18 31.92389 -97.23393 24298 ft 435 kts 194°
2026-05-05 21:18 31.89358 -97.23798 24753 ft 438 kts 194°
2026-05-05 21:19 31.86294 -97.24204 25194 ft 442 kts 194°
2026-05-05 21:19 31.83243 -97.24606 25616 ft 445 kts 194°
2026-05-05 21:19 31.80129 -97.25019 26030 ft 448 kts 194°
2026-05-05 21:19 31.77046 -97.25429 26423 ft 451 kts 194°
2026-05-05 21:20 31.73921 -97.25845 26805 ft 454 kts 195°
2026-05-05 21:20 31.70746 -97.26276 27176 ft 456 kts 196°
2026-05-05 21:20 31.67638 -97.26897 27526 ft 453 kts 200°
2026-05-05 21:20 31.64621 -97.27794 27857 ft 450 kts 205°
2026-05-05 21:21 31.61676 -97.28974 28161 ft 448 kts 210°
2026-05-05 21:21 31.58780 -97.30318 28449 ft 449 kts 211°
2026-05-05 21:21 31.55886 -97.31694 28716 ft 451 kts 211°
2026-05-05 21:21 31.52969 -97.33083 28972 ft 453 kts 211°
2026-05-05 21:22 31.50045 -97.34470 29214 ft 455 kts 211°
2026-05-05 21:22 31.47124 -97.35851 29441 ft 457 kts 211°
2026-05-05 21:22 31.44153 -97.37252 29657 ft 459 kts 211°
2026-05-05 21:22 31.41219 -97.38632 29857 ft 460 kts 211°
2026-05-05 21:23 31.38211 -97.40046 30050 ft 462 kts 211°
2026-05-05 21:23 31.35235 -97.41443 30235 ft 463 kts 211°
2026-05-05 21:23 31.32260 -97.42839 30401 ft 465 kts 211°
2026-05-05 21:23 31.29265 -97.44242 30557 ft 466 kts 211°
2026-05-05 21:24 31.26241 -97.45658 30705 ft 467 kts 211°
2026-05-05 21:24 31.23245 -97.47058 30840 ft 468 kts 211°
2026-05-05 21:24 31.20211 -97.48474 30967 ft 469 kts 211°
2026-05-05 21:24 31.17220 -97.49869 31088 ft 470 kts 211°
2026-05-05 21:25 31.14146 -97.51304 31229 ft 470 kts 211°
2026-05-05 21:25 31.11108 -97.52719 31382 ft 470 kts 211°
2026-05-05 21:25 31.08061 -97.54139 31537 ft 470 kts 212°
2026-05-05 21:25 31.05032 -97.55550 31692 ft 470 kts 212°
2026-05-05 21:26 31.02011 -97.56956 31939 ft 467 kts 212°
2026-05-05 21:26 30.98972 -97.58366 32341 ft 462 kts 212°
2026-05-05 21:26 30.96011 -97.59740 32661 ft 459 kts 212°
2026-05-05 21:26 30.93067 -97.61110 32896 ft 457 kts 212°
2026-05-05 21:27 30.90115 -97.62485 33091 ft 457 kts 212°
2026-05-05 21:27 30.87148 -97.63860 33263 ft 457 kts 212°
2026-05-05 21:27 30.84143 -97.65245 33432 ft 457 kts 212°
2026-05-05 21:27 30.81198 -97.66614 33618 ft 457 kts 212°
2026-05-05 21:28 30.78211 -97.68008 33808 ft 458 kts 212°
2026-05-05 21:28 30.75268 -97.69377 33981 ft 458 kts 212°
2026-05-05 21:28 30.72262 -97.70773 34155 ft 459 kts 212°
2026-05-05 21:28 30.69299 -97.72145 34347 ft 458 kts 212°
2026-05-05 21:29 30.66333 -97.73515 34542 ft 458 kts 212°
2026-05-05 21:29 30.63327 -97.74902 34743 ft 457 kts 212°
2026-05-05 21:29 30.60404 -97.76344 34937 ft 453 kts 215°
2026-05-05 21:29 30.57574 -97.77936 35131 ft 448 kts 218°
2026-05-05 21:30 30.54851 -97.79674 35308 ft 443 kts 221°
2026-05-05 21:30 30.52250 -97.81535 35479 ft 440 kts 223°
2026-05-05 21:30 30.49651 -97.83466 35657 ft 439 kts 223°
2026-05-05 21:30 30.47059 -97.85391 35823 ft 439 kts 223°
2026-05-05 21:31 30.44464 -97.87317 35992 ft 438 kts 223°
2026-05-05 21:31 30.41874 -97.89237 36157 ft 437 kts 223°
2026-05-05 21:31 30.39296 -97.91146 36314 ft 437 kts 223°
2026-05-05 21:31 30.36736 -97.93041 36459 ft 437 kts 223°
2026-05-05 21:32 30.34163 -97.94945 36594 ft 437 kts 223°
2026-05-05 21:32 30.31585 -97.96851 36717 ft 437 kts 223°
2026-05-05 21:32 30.28973 -97.98782 36848 ft 437 kts 223°
2026-05-05 21:32 30.26387 -98.00690 36964 ft 437 kts 223°
2026-05-05 21:33 30.23841 -98.02569 37078 ft 437 kts 223°
2026-05-05 21:33 30.21237 -98.04489 37197 ft 437 kts 223°
2026-05-05 21:33 30.18645 -98.06399 37311 ft 437 kts 223°
2026-05-05 21:33 30.16091 -98.08280 37412 ft 437 kts 223°
2026-05-05 21:34 30.13473 -98.10206 37516 ft 437 kts 223°
2026-05-05 21:34 30.10921 -98.12084 37622 ft 437 kts 223°
2026-05-05 21:34 30.08357 -98.13969 37724 ft 437 kts 223°
2026-05-05 21:34 30.05757 -98.15879 37799 ft 437 kts 223°
2026-05-05 21:35 30.00587 -98.19675 37803 ft 438 kts 223°
2026-05-05 21:35 29.95410 -98.23471 37803 ft 438 kts 223°
2026-05-05 21:36 29.90213 -98.27275 37802 ft 438 kts 223°
2026-05-05 21:36 29.85026 -98.31047 37801 ft 438 kts 223°
2026-05-05 21:37 29.79814 -98.34837 37801 ft 438 kts 223°
2026-05-05 21:37 29.74650 -98.38605 37803 ft 438 kts 223°
2026-05-05 21:38 29.69467 -98.42382 37804 ft 438 kts 223°
2026-05-05 21:38 29.64091 -98.45901 37804 ft 446 kts 217°
2026-05-05 21:39 29.58320 -98.48806 37804 ft 454 kts 212°
2026-05-05 21:39 29.52394 -98.51475 37803 ft 454 kts 212°
2026-05-05 21:40 29.46503 -98.54124 37799 ft 454 kts 212°
2026-05-05 21:40 29.40579 -98.56786 37790 ft 454 kts 212°
2026-05-05 21:41 29.34652 -98.59448 37780 ft 454 kts 212°
2026-05-05 21:41 29.28726 -98.62107 37771 ft 454 kts 212°
2026-05-05 21:42 29.22803 -98.64762 37766 ft 454 kts 212°
2026-05-05 21:42 29.16919 -98.67417 37769 ft 455 kts 212°
2026-05-05 21:43 29.10980 -98.70092 37774 ft 455 kts 212°
2026-05-05 21:43 29.05075 -98.72745 37781 ft 455 kts 211°
2026-05-05 21:44 28.99124 -98.75407 37784 ft 456 kts 210°
2026-05-05 21:44 28.93196 -98.78049 37786 ft 457 kts 210°
2026-05-05 21:45 28.87219 -98.80695 37787 ft 457 kts 209°
2026-05-05 21:45 28.81278 -98.83312 37786 ft 458 kts 210°
2026-05-05 21:46 28.75304 -98.85952 37785 ft 457 kts 210°
2026-05-05 21:46 28.69342 -98.88591 37776 ft 457 kts 210°
2026-05-05 21:47 28.63352 -98.91242 37760 ft 457 kts 210°
2026-05-05 21:47 28.57402 -98.93874 37743 ft 457 kts 210°
2026-05-05 21:48 28.51440 -98.96506 37736 ft 457 kts 209°
2026-05-05 21:48 28.45479 -98.99134 37733 ft 456 kts 209°
2026-05-05 21:49 28.39524 -99.01758 37732 ft 456 kts 209°
2026-05-05 21:49 28.33575 -99.04375 37732 ft 456 kts 209°
2026-05-05 21:50 28.27610 -99.06995 37732 ft 456 kts 209°
2026-05-05 21:50 28.21666 -99.09604 37731 ft 456 kts 209°
2026-05-05 21:51 28.15702 -99.12219 37732 ft 456 kts 209°
2026-05-05 21:51 28.09771 -99.14815 37732 ft 455 kts 209°
2026-05-05 21:52 28.00873 -99.18703 37730 ft 456 kts 209°
2026-05-05 21:53 27.94904 -99.21309 37728 ft 455 kts 209°
2026-05-05 21:53 27.88971 -99.23895 37723 ft 456 kts 209°
2026-05-05 21:54 27.83039 -99.26462 37719 ft 456 kts 209°
2026-05-05 21:54 27.77084 -99.29044 37716 ft 456 kts 209°
2026-05-05 21:55 27.71120 -99.31634 37715 ft 456 kts 209°
2026-05-05 21:55 27.65148 -99.34229 37713 ft 455 kts 209°
2026-05-05 21:56 27.59192 -99.36813 37714 ft 456 kts 209°
2026-05-05 21:56 27.53513 -99.39805 37714 ft 443 kts 221°
2026-05-05 21:57 27.48964 -99.44295 37461 ft 429 kts 237°
2026-05-05 21:57 27.47223 -99.46962 36899 ft 421 kts 243°
2026-05-05 21:57 27.45727 -99.49776 36349 ft 418 kts 247°
2026-05-05 21:57 27.44317 -99.52683 35793 ft 419 kts 246°
2026-05-05 21:58 27.42685 -99.55469 35229 ft 426 kts 239°
2026-05-05 21:58 27.40715 -99.57996 34662 ft 435 kts 231°
2026-05-05 21:58 27.38381 -99.60211 34083 ft 445 kts 223°
2026-05-05 21:58 27.35834 -99.62198 33500 ft 448 kts 221°
2026-05-05 21:59 27.33227 -99.64146 32908 ft 449 kts 220°
2026-05-05 21:59 27.30597 -99.66084 32317 ft 449 kts 219°
2026-05-05 21:59 27.28007 -99.67992 31754 ft 449 kts 219°
2026-05-05 21:59 27.25387 -99.69917 31202 ft 449 kts 219°
2026-05-05 22:00 27.22752 -99.71848 30647 ft 450 kts 218°
2026-05-05 22:00 27.20165 -99.73740 30102 ft 450 kts 218°
2026-05-05 22:00 27.17551 -99.75646 29555 ft 451 kts 218°
2026-05-05 22:00 27.14911 -99.77569 28999 ft 451 kts 217°
2026-05-05 22:01 27.12247 -99.79508 28438 ft 452 kts 217°
2026-05-05 22:01 27.09578 -99.81449 27877 ft 453 kts 217°
2026-05-05 22:01 27.06932 -99.83384 27319 ft 454 kts 217°
2026-05-05 22:01 27.04277 -99.85337 26758 ft 456 kts 216°
2026-05-05 22:02 27.01645 -99.87273 26200 ft 458 kts 216°
2026-05-05 22:02 26.98919 -99.89275 25622 ft 463 kts 216°
2026-05-05 22:02 26.96360 -99.91465 25035 ft 463 kts 226°
2026-05-05 22:02 26.94250 -99.94236 24451 ft 464 kts 237°
2026-05-05 22:03 26.92728 -99.97458 23858 ft 454 kts 249°
2026-05-05 22:03 26.91752 -100.00764 23313 ft 441 kts 255°
2026-05-05 22:03 26.90924 -100.04086 22767 ft 439 kts 255°
2026-05-05 22:03 26.90122 -100.07426 22221 ft 437 kts 256°
2026-05-05 22:04 26.89331 -100.10719 21683 ft 435 kts 256°
2026-05-05 22:04 26.88540 -100.13974 21150 ft 433 kts 256°
2026-05-05 22:04 26.87736 -100.17276 20611 ft 432 kts 256°
2026-05-05 22:04 26.86936 -100.20532 20073 ft 429 kts 254°
2026-05-05 22:05 26.85662 -100.23564 19503 ft 429 kts 235°
2026-05-05 22:05 26.83548 -100.25951 18972 ft 431 kts 219°
2026-05-05 22:05 26.80934 -100.27581 18437 ft 433 kts 203°
2026-05-05 22:05 26.77953 -100.28387 17887 ft 434 kts 188°
2026-05-05 22:06 26.74915 -100.28251 17344 ft 436 kts 172°
2026-05-05 22:06 26.71974 -100.27430 16817 ft 434 kts 166°
2026-05-05 22:06 26.69090 -100.26496 16410 ft 418 kts 166°
2026-05-05 22:06 26.66342 -100.25597 16053 ft 395 kts 166°
2026-05-05 22:07 26.63707 -100.24757 15710 ft 390 kts 166°
2026-05-05 22:07 26.61092 -100.23942 15371 ft 388 kts 166°
2026-05-05 22:07 26.58482 -100.23135 15084 ft 386 kts 166°
2026-05-05 22:07 26.55868 -100.22340 14863 ft 386 kts 168°
2026-05-05 22:08 26.53232 -100.21705 14647 ft 383 kts 172°
2026-05-05 22:08 26.50629 -100.21268 14437 ft 381 kts 174°
2026-05-05 22:08 26.48050 -100.20881 14218 ft 361 kts 174°
2026-05-05 22:08 26.45578 -100.20514 14020 ft 355 kts 174°
2026-05-05 22:09 26.43096 -100.20148 13819 ft 353 kts 174°
2026-05-05 22:09 26.40666 -100.19788 13623 ft 352 kts 174°
2026-05-05 22:09 26.38232 -100.19425 13426 ft 351 kts 174°
2026-05-05 22:09 26.35784 -100.19061 13228 ft 350 kts 174°
2026-05-05 22:10 26.33350 -100.18697 13030 ft 350 kts 174°
2026-05-05 22:10 26.30940 -100.18337 12834 ft 348 kts 174°
2026-05-05 22:10 26.28536 -100.17979 12639 ft 347 kts 174°
2026-05-05 22:10 26.26135 -100.17620 12445 ft 346 kts 174°
2026-05-05 22:11 26.23729 -100.17261 12250 ft 345 kts 174°
2026-05-05 22:11 26.21310 -100.16901 12054 ft 344 kts 174°
2026-05-05 22:11 26.18936 -100.16547 11859 ft 343 kts 173°
2026-05-05 22:11 26.16562 -100.16193 11288 ft 336 kts 173°
2026-05-05 22:12 26.14276 -100.15852 10700 ft 320 kts 173°
2026-05-05 22:12 26.12110 -100.15537 10146 ft 306 kts 176°
2026-05-05 22:12 26.10074 -100.15754 9764 ft 284 kts 200°
2026-05-05 22:12 26.08395 -100.16765 9440 ft 266 kts 216°
2026-05-05 22:13 26.06935 -100.17970 9130 ft 258 kts 218°
2026-05-05 22:13 26.05502 -100.19185 8763 ft 257 kts 218°
2026-05-05 22:13 26.04071 -100.20388 8355 ft 255 kts 217°
2026-05-05 22:13 26.02644 -100.21577 7950 ft 253 kts 217°
2026-05-05 22:14 26.01228 -100.22747 7549 ft 251 kts 217°
2026-05-05 22:14 25.99814 -100.23912 7149 ft 250 kts 217°
2026-05-05 22:14 25.98425 -100.25053 6754 ft 246 kts 217°
2026-05-05 22:14 25.97065 -100.26170 6359 ft 236 kts 217°
2026-05-05 22:15 25.95771 -100.27231 5985 ft 226 kts 217°
2026-05-05 22:15 25.94521 -100.28256 5623 ft 218 kts 216°
2026-05-05 22:15 25.93332 -100.29230 5278 ft 210 kts 216°
2026-05-05 22:15 25.92154 -100.30167 4947 ft 208 kts 208°
2026-05-05 22:16 25.90814 -100.30634 4696 ft 195 kts 182°
2026-05-05 22:16 25.89539 -100.30440 4621 ft 176 kts 158°
2026-05-05 22:16 25.88575 -100.29727 4586 ft 160 kts 138°
2026-05-05 22:16 25.87852 -100.28792 4523 ft 160 kts 129°
2026-05-05 22:17 25.87216 -100.27755 4452 ft 160 kts 125°
2026-05-05 22:17 25.86622 -100.26701 4380 ft 160 kts 124°
2026-05-05 22:17 25.86043 -100.25648 4168 ft 154 kts 124°
2026-05-05 22:17 25.85503 -100.24658 3973 ft 146 kts 124°
2026-05-05 22:18 25.84975 -100.23694 3773 ft 145 kts 124°
2026-05-05 22:18 25.84444 -100.22726 3576 ft 144 kts 124°
2026-05-05 22:18 25.83925 -100.21780 3380 ft 143 kts 124°
2026-05-05 22:18 25.83400 -100.20822 3180 ft 143 kts 124°
2026-05-05 22:19 25.82880 -100.19874 2984 ft 142 kts 124°
2026-05-05 22:19 25.82363 -100.18930 2787 ft 142 kts 124°
2026-05-05 22:19 25.81849 -100.17992 2591 ft 141 kts 124°
2026-05-05 22:19 25.81332 -100.17047 2395 ft 141 kts 124°
2026-05-05 22:20 25.80822 -100.16117 2201 ft 140 kts 124°
2026-05-05 22:20 25.80310 -100.15183 2006 ft 139 kts 124°
2026-05-05 22:20 25.79805 -100.14259 1816 ft 139 kts 124°
2026-05-05 22:20 25.79297 -100.13332 1627 ft 138 kts 124°
2026-05-05 22:21 25.78794 -100.12412 1429 ft 138 kts 124°
2026-05-05 22:21 25.78291 -100.11494 1296 ft 137 kts 123°
2026-05-05 22:21 25.77836 -100.10673 1283 ft 102 kts 121°
2026-05-05 22:21 25.77578 -100.10198 1283 ft 51 kts 122°
2026-05-05 22:22 25.77398 -100.09874 1283 ft 46 kts 122°
2026-05-05 22:22 25.77302 -100.09700 1283 ft 13 kts 131°
2026-05-05 22:22 25.77215 -100.09723 1283 ft 14 kts 212°
2026-05-05 22:22 25.77144 -100.09799 1283 ft 14 kts 276°
2026-05-05 22:23 25.77207 -100.09923 1283 ft 21 kts 301°
2026-05-05 22:23 25.77293 -100.10081 1283 ft 24 kts 300°
2026-05-05 22:23 25.77380 -100.10236 1283 ft 23 kts 301°
2026-05-05 22:23 25.77462 -100.10384 1283 ft 22 kts 301°
2026-05-05 22:24 25.77502 -100.10458 1283 ft 6 kts 300°
2026-05-05 22:24 25.77530 -100.10510 1283 ft 11 kts 302°
2026-05-05 22:24 25.77583 -100.10607 1283 ft 15 kts 301°
2026-05-05 22:24 25.77642 -100.10714 1283 ft 17 kts 301°
2026-05-05 22:25 25.77715 -100.10847 1283 ft 21 kts 302°
2026-05-05 22:25 25.77794 -100.10989 1283 ft 21 kts 302°
2026-05-05 22:25 25.77877 -100.11139 1283 ft 27 kts 302°
2026-05-05 22:25 25.77972 -100.11314 1283 ft 25 kts 301°
2026-05-05 22:26 25.78061 -100.11473 1283 ft 20 kts 302°
2026-05-05 22:26 25.78123 -100.11587 1283 ft 14 kts 300°
2026-05-05 22:26 25.78091 -100.11657 1283 ft 8 kts 211°
2026-05-05 22:26 25.78067 -100.11680 1283 ft 4 kts 229°
2026-05-05 22:27 25.78022 -100.11713 1283 ft 9 kts 211°
2026-05-05 22:27 25.77989 -100.11736 1283 ft 0 kts 211°
2026-05-05 22:27 25.77988 -100.11736 1283 ft 0 kts 211°